Flag for Angola Weather past 2 weeks in Menongue, Angola

Now
77 °F

Pleasantly warm.


Feels Like: 78 °F
Forecast: 61 / 83 °F
Wind: 9 mph from North

Location: Ondangwa

Current Time: Sep 23, 2014 at 1:18:11 AM

Latest Report: Sep 23, 2014 at 12:00 AM


Visibility: N/A

Pressure: 30.04 "Hg

Humidity: 36%

Dew point: 48 °F

Location of MenongueLocation

Historic Weather in Menongue — Graph

°F

Menongue temperature yesterday

Maximum temperature yesterday: 90 °F (at 3:00 PM)
Minimum temperature yesterday: 75 °F (at 4:00 AM)
Average temperature yesterday: 81 °F

Past Weeks' High & Low Weather Summary

 TemperatureHumidityPressure
High100 °F (Sep 15, 2:00 PM)69% (Sep 14, 6:00 AM)30.21 "Hg (Sep 14, 6:00 AM)
Low55 °F (Sep 8, 6:00 AM)7% (Sep 10, 3:00 PM)29.83 "Hg (Sep 17, 3:00 PM)
Average80 °F22%30.00 "Hg
* Reported Midnight between Sep 7 and Sep 8 — Midnight between Sep 22 and Sep 23, Menongue, Weather by CustomWeather, © 2014

Note: Actual official high and low records may vary slightly from our data, if they occured in-between our weather recording intervals... More about our weather records

Advertising

Menongue weather history for previous 24 hours

 ConditionsComfort  
Time TempWeatherWind HumidityBarometerVisibility
12:00 AM
Sep 23
77 °FPleasantly warm.9 mph36%30.04 "HgN/A
11:00 PM
Sep 22
77 °FPleasantly warm.7 mph36%30.01 "HgN/A
10:00 PM77 °FPleasantly warm.6 mph36%30.01 "HgN/A
9:00 PM81 °FPleasantly warm.8 mph30%30.01 "HgN/A
8:00 PM82 °FPleasantly warm.9 mph28%30.01 "HgN/A
7:00 PM82 °FClear.8 mph28%30.01 "Hg10 mi
6:00 PM84 °FPleasantly warm.12 mph27%29.98 "HgN/A
5:00 PM88 °FPleasantly warm.12 mph24%29.98 "HgN/A
4:00 PM90 °FSunny.8 mph22%29.95 "Hg10 mi
3:00 PM90 °FHot.9 mph24%29.95 "HgN/A
2:00 PM88 °FPleasantly warm.13 mph25%29.98 "HgN/A
12:00 PM86 °FSunny.10 mph27%30.04 "Hg10 mi
11:00 AM84 °FSunny.13 mph29%30.07 "Hg10 mi
10:00 AM82 °FSunny.12 mph30%30.09 "Hg10 mi
9:00 AM79 °FSunny.10 mph37%30.09 "Hg10 mi
8:00 AM77 °FSunny.8 mph39%30.12 "Hg10 mi
7:00 AM75 °FSunny.10 mph41%30.09 "Hg10 mi
4:00 AM75 °FClear.6 mph36%30.04 "Hg10 mi
3:00 AM77 °FPleasantly warm.9 mph34%30.04 "HgN/A
2:00 AM79 °FPleasantly warm.6 mph28%30.04 "HgN/A
1:00 AM79 °FPleasantly warm.3 mph24%30.01 "HgN/A
Weather by CustomWeather, © 2014

See weather overviewHow to use our weather pages